Location: Goettingen
(51.5300°N, 9.9433°E)
Time: 06:29:30
(UTC+02:00)

ISS - Pass Details

Date: 14 May 2021
Orbit: 417 x 422 km, 51.6° (Epoch: 18 May)

Event Time Altitude Azimuth Distance (km) Brightness Sun altitude
Exits shadow 02:51:31 - 278° (W) 1,640 -0.9 -16.8°
Reaches altitude 10° 02:51:51 10° 278° (W) 1,504 -1.1 -16.8°
Maximum altitude 02:55:14 81° 192° (SSW) 431 -3.9 -16.6°
Drops below altitude 10° 02:58:37 10° 105° (ESE) 1,504 -0.8 -16.4°
Sets 03:00:42 0° 104° (ESE) 2,368 0.2 -16.2°
